Bill Jr — WCO6976 — position and weather

sailwx.info

Track history (hours):
 
Tides and Currents Weather Stations Pressure Air Temp Water Temp Dewpoint Dewpoint Depression Visibility Wind Speed Wind Dir Waves Ship Positions

Bill Jr

Owner: DAWSON VESSELS INC, MOBILE, AL. More information available from US FCC via Universal Licensing System and Coast Guard Vessel Documentation Center.

Last reported at 2014-Oct-07 09:29 UTC. Time now 2014-Oct-21 07:07 UTC.
Position N 29°56' W 090°21'.
Warning: this ship's position is 13 days out of date.

Length 21 m.

MMSI: 366976750.

Date/timePositionNaut miles runAvg speedWind from/ knotsBaromVisibWave heightAir tempDewpointWater temp
2014-Oct-07 09:29N 29°56' W 090°21'1 0.9
2014-Oct-07 08:22N 29°56' W 090°20'2 0.1
2014-Oct-06 07:32N 29°57' W 090°18'6 6.5
2014-Oct-06 06:33N 29°59' W 090°25'7 6.6
2014-Oct-06 05:33N 30°03' W 090°31'3 2.9
2014-Oct-06 04:33N 30°03' W 090°34'1 1.3
2014-Oct-06 03:33N 30°03' W 090°36'2 2.0
2014-Oct-06 02:33N 30°02' W 090°38'0 0.1
2014-Oct-06 01:33N 30°02' W 090°38'1 1.4
2014-Oct-06 00:33N 30°02' W 090°37'2 2.2
2014-Oct-05 23:33N 30°03' W 090°34'1 1.0
2014-Oct-05 22:33N 30°03' W 090°33'2 2.0
2014-Oct-05 21:33N 30°03' W 090°35'3 3.3
2014-Oct-05 20:33N 30°03' W 090°39'3 2.7
2014-Oct-05 19:33N 30°03' W 090°36'2 1.6
2014-Oct-05 18:33N 30°03' W 090°34'1 1.4
2014-Oct-05 17:33N 30°03' W 090°33'4 4.4
2014-Oct-05 16:33N 30°00' W 090°28'5 4.6
2014-Oct-05 15:28N 29°58' W 090°24'3 0.2
2014-Oct-05 04:06N 29°56' W 090°21'0 0.4
2014-Oct-05 03:24N 29°56' W 090°21'0 0.1
2014-Oct-05 02:10N 29°56' W 090°21'2 0.1
2014-Oct-03 22:23N 29°57' W 090°19'2 0.1
2014-Oct-02 07:23N 29°56' W 090°21'1 0.9
2014-Oct-02 06:32N 29°56' W 090°20'0 0.1
2014-Oct-02 05:06N 29°56' W 090°20'2 0.0
2014-Sep-30 10:24N 29°57' W 090°22'6 7.4
2014-Sep-30 09:33N 30°00' W 090°28'6 5.9
2014-Sep-30 08:33N 30°03' W 090°34'2 1.7
2014-Sep-30 07:33N 30°03' W 090°32'2 1.8
2014-Sep-30 06:33N 30°03' W 090°30'2 1.9
2014-Sep-30 05:33N 30°02' W 090°28'2 1.8
2014-Sep-30 04:33N 30°00' W 090°28'2 2.3
2014-Sep-30 03:33N 29°60' W 090°26'3 3.0
2014-Sep-30 02:33N 30°01' W 090°28'4 4.4
2014-Sep-30 01:33N 30°03' W 090°33'3 2.9
2014-Sep-30 00:33N 30°03' W 090°30'3 3.2
2014-Sep-29 23:33N 30°00' W 090°28'7 0.2
2014-Sep-28 02:33N 29°56' W 090°21'2 2.0
2014-Sep-28 01:30N 29°57' W 090°24'3 3.3
2014-Sep-28 00:33N 29°60' W 090°26'0 0.5
2014-Sep-27 23:33N 29°59' W 090°25'0 0.1
2014-Sep-27 22:33N 29°59' W 090°25'3 3.4
2014-Sep-27 21:33N 30°02' W 090°28'4 3.8
2014-Sep-27 20:33N 30°03' W 090°33'3 3.1
2014-Sep-27 19:33N 30°03' W 090°29'3 3.4
2014-Sep-27 18:33N 29°60' W 090°27'4 3.8
2014-Sep-27 17:23N 29°57' W 090°23'  
Track history (hours):
 
Tides and Currents Weather Stations Pressure Air Temp Water Temp Dewpoint Dewpoint Depression Visibility Wind Speed Wind Dir Waves Ship Positions

Bill Jr

Owner: DAWSON VESSELS INC, MOBILE, AL. More information available from US FCC via Universal Licensing System and Coast Guard Vessel Documentation Center.

Last reported at 2014-Oct-07 09:29 UTC. Time now 2014-Oct-21 07:07 UTC.
Position N 29°56' W 090°21'.
Warning: this ship's position is 13 days out of date.

Length 21 m.

MMSI: 366976750.

Date/timePositionNaut miles runAvg speedWind from/ knotsBaromVisibWave heightAir tempDewpointWater temp
2014-Oct-07 09:29N 29°56' W 090°21'1 0.9
2014-Oct-07 08:22N 29°56' W 090°20'2 0.1
2014-Oct-06 07:32N 29°57' W 090°18'6 6.5
2014-Oct-06 06:33N 29°59' W 090°25'7 6.6
2014-Oct-06 05:33N 30°03' W 090°31'3 2.9
2014-Oct-06 04:33N 30°03' W 090°34'1 1.3
2014-Oct-06 03:33N 30°03' W 090°36'2 2.0
2014-Oct-06 02:33N 30°02' W 090°38'0 0.1
2014-Oct-06 01:33N 30°02' W 090°38'1 1.4
2014-Oct-06 00:33N 30°02' W 090°37'2 2.2
2014-Oct-05 23:33N 30°03' W 090°34'1 1.0
2014-Oct-05 22:33N 30°03' W 090°33'2 2.0
2014-Oct-05 21:33N 30°03' W 090°35'3 3.3
2014-Oct-05 20:33N 30°03' W 090°39'3 2.7
2014-Oct-05 19:33N 30°03' W 090°36'2 1.6
2014-Oct-05 18:33N 30°03' W 090°34'1 1.4
2014-Oct-05 17:33N 30°03' W 090°33'4 4.4
2014-Oct-05 16:33N 30°00' W 090°28'5 4.6
2014-Oct-05 15:28N 29°58' W 090°24'3 0.2
2014-Oct-05 04:06N 29°56' W 090°21'0 0.4
2014-Oct-05 03:24N 29°56' W 090°21'0 0.1
2014-Oct-05 02:10N 29°56' W 090°21'2 0.1
2014-Oct-03 22:23N 29°57' W 090°19'2 0.1
2014-Oct-02 07:23N 29°56' W 090°21'1 0.9
2014-Oct-02 06:32N 29°56' W 090°20'0 0.1
2014-Oct-02 05:06N 29°56' W 090°20'2 0.0
2014-Sep-30 10:24N 29°57' W 090°22'6 7.4
2014-Sep-30 09:33N 30°00' W 090°28'6 5.9
2014-Sep-30 08:33N 30°03' W 090°34'2 1.7
2014-Sep-30 07:33N 30°03' W 090°32'2 1.8
2014-Sep-30 06:33N 30°03' W 090°30'2 1.9
2014-Sep-30 05:33N 30°02' W 090°28'2 1.8
2014-Sep-30 04:33N 30°00' W 090°28'2 2.3
2014-Sep-30 03:33N 29°60' W 090°26'3 3.0
2014-Sep-30 02:33N 30°01' W 090°28'4 4.4
2014-Sep-30 01:33N 30°03' W 090°33'3 2.9
2014-Sep-30 00:33N 30°03' W 090°30'3 3.2
2014-Sep-29 23:33N 30°00' W 090°28'7 0.2
2014-Sep-28 02:33N 29°56' W 090°21'2 2.0
2014-Sep-28 01:30N 29°57' W 090°24'3 3.3
2014-Sep-28 00:33N 29°60' W 090°26'0 0.5
2014-Sep-27 23:33N 29°59' W 090°25'0 0.1
2014-Sep-27 22:33N 29°59' W 090°25'3 3.4
2014-Sep-27 21:33N 30°02' W 090°28'4 3.8
2014-Sep-27 20:33N 30°03' W 090°33'3 3.1
2014-Sep-27 19:33N 30°03' W 090°29'3 3.4
2014-Sep-27 18:33N 29°60' W 090°27'4 3.8
2014-Sep-27 17:23N 29°57' W 090°23'  

Dump ship's entire track history